Weather observations for the past three days for
Minot Air Force Base
Imperial (Metric)
Date Time (cdt) Wind (mph) Vis. (mi.) Weather Sky Cond. Temperature (ºF) Relative Humidity Wind Chill (°F) Heat Index (°F) Pressure Precipitation (in)
Air Dwpt 6 hour altimeter (in) sea level (mb) 1 hr 3 hr 6 hr
Max. Min.
06 18:55 NW 15 10.00 Mostly Cloudy BKN090 51.3 18.3 53.2 44.8 27% 29.86 1012.8
06 17:55 NW 14 G 24 10.00 Mostly Cloudy BKN085 50.4 17.6 27% 29.86 1012.9
06 16:55 NW 12 G 18 10.00 Mostly Cloudy FEW070 BKN085 52 17.2 25% 29.88 1013.7
06 15:55 NW 8 10.00 Mostly Cloudy BKN065 51.6 17.8 26% 29.9 1014.3
06 14:55 W 9 G 17 10.00 Partly Cloudy SCT060 50.5 19.4 29% 29.92 1015.0
06 13:55 NW 7 10.00 Mostly Cloudy BKN055 48 18.9 31% 45 29.94 1015.9
06 12:55 NW 9 10.00 Mostly Cloudy BKN050 46 20.5 46.6 30.2 36% 42 29.96 1016.8
06 11:55 NW 13 10.00 Mostly Cloudy BKN050 45.3 19.9 36% 40 29.99 1017.7
06 10:55 NW 9 10.00 Mostly Cloudy BKN045 41.2 20.3 43% 36 30 1017.9
06 09:55 W 8 10.00 Mostly Cloudy FEW040 BKN060 40.1 21 46% 35 30.01 1018.2
06 08:55 NW 6 10.00 Overcast OVC055 37 21 52% 33 30.01 1018.2
06 07:55 W 6 10.00 Overcast OVC055 34.5 21.2 58% 30 30.01 1018.2
06 06:55 W 6 10.00 Overcast OVC055 30.2 19.4 30.4 18 64% 25 30.01 1018.3
06 05:55 W 3 10.00 Mostly Cloudy BKN048 27.7 19.6 72% 30 1018.1
06 04:55 NW 3 10.00 Mostly Cloudy BKN050 24.6 18.1 76% 30.01 1018.4
06 03:55 W 7 10.00 Mostly Cloudy BKN050 25.9 17.8 71% 19 30 1018.1
06 02:55 W 7 10.00 Mostly Cloudy BKN050 26.4 17.6 69% 20 30 1018.1
06 01:55 W 6 10.00 Mostly Cloudy BKN048 21.6 14.2 73% 15 30.01 1018.7
06 00:55 W 7 10.00 Partly Cloudy SCT050 19 10.6 41.4 19 69% 11 30 1018.4
05 23:55 NW 5 10.00 Mostly Cloudy BKN050 23.7 13.3 64% 19 30 1018.3
05 22:55 Calm 10.00 Partly Cloudy SCT055 32.4 17.6 54% 30 1018.0
05 21:55 NE 6 10.00 Fair CLR 33.6 17.8 52% 29 29.98 1017.3
05 20:55 N 7 10.00 Partly Cloudy SCT060 36.5 17.2 46% 32 29.96 1016.5
05 19:55 N 12 10.00 Mostly Cloudy BKN060 39.7 16.9 40% 33 29.95 1016.1
05 18:55 N 12 10.00 Overcast OVC055 40.8 17.2 41.9 38.3 38% 35 29.94 1015.9
05 17:55 N 18 10.00 Overcast OVC050 40.6 17.1 38% 32 29.93 1015.7
05 16:55 N 15 G 23 10.00 Mostly Cloudy BKN055 41.4 17.1 37% 34 29.93 1015.5
05 15:55 NW 17 G 23 10.00 Overcast OVC050 41.4 15.8 35% 34 29.93 1015.3
05 14:55 N 15 10.00 Overcast OVC049 40.1 16 37% 33 29.94 1015.7
05 13:55 N 17 G 25 10.00 Overcast BKN047 OVC190 39.4 18.1 42% 31 29.93 1015.5
05 12:55 NW 17 10.00 Overcast OVC042 38.1 17.6 38.5 30 43% 29 29.93 1015.6
05 11:55 N 20 9.00 Light Rain BKN038 OVC046 36.7 19.8 50% 27 29.93 1015.6
05 10:55 NW 22 G 28 10.00 Mostly Cloudy and Breezy BKN040 BKN047 37.4 19.6 49% 27 29.91 1014.8
05 09:55 N 20 10.00 Overcast SCT037 BKN049 OVC060 37.4 19.6 49% 28 29.91 1014.8
05 08:55 N 15 10.00 Mostly Cloudy BKN065 36 19 50% 27 29.9 1014.4
05 07:55 NW 14 10.00 Mostly Cloudy BKN060 34.9 17.6 49% 26 29.89 1014.0
05 06:55 NW 9 10.00 Mostly Cloudy BKN060 29.8 18 36.7 26.8 61% 22 29.87 1013.4
05 05:55 NW 9 10.00 Partly Cloudy SCT070 26.8 17.6 68% 18 29.86 1013.2
05 04:55 NW 13 10.00 Overcast OVC070 34.3 19.4 54% 26 29.85 1012.5
05 03:55 NW 12 10.00 Overcast OVC070 35.8 24.1 62% 28 29.83 1011.7
05 02:55 NW 10 10.00 Overcast OVC070 36.5 23.2 59% 30 29.82 1011.5
05 01:55 NW 12 10.00 Overcast OVC070 35.8 21.6 56% 28 29.82 1011.5
05 00:55 W 10 10.00 Overcast OVC070 35.6 23 44.1 33.6 60% 29 29.82 1011.5
04 23:55 NW 12 10.00 Mostly Cloudy BKN075 34.2 22.8 63% 26 29.81 1011.3
04 22:55 NW 12 10.00 Mostly Cloudy BKN070 36.1 23.5 60% 29 29.81 1011.2
04 21:55 NW 15 10.00 Mostly Cloudy SCT050 BKN080 39 25.5 58% 31 29.8 1010.9
04 20:55 NW 18 G 26 10.00 Mostly Cloudy FEW050 BKN070 40.8 23.5 50% 33 29.78 1010.1
04 19:55 NW 23 G 32 10.00 Mostly Cloudy and Breezy FEW047 FEW060 BKN075 42.6 22.8 45% 34 29.76 1009.4
04 18:55 N 23 G 30 10.00 Mostly Cloudy and Breezy BKN065 44.1 20.1 50 44.1 38% 36 29.75 1009.1
04 17:55 N 28 G 32 10.00 Mostly Cloudy and Windy BKN070 45.7 19.6 35% 37 29.74 1008.6
04 16:55 NW 25 G 36 10.00 Mostly Cloudy and Breezy BKN065 47.7 19.2 32% 40 29.72 1007.9
04 15:55 NW 22 G 38 10.00 Mostly Cloudy and Breezy BKN060 48.2 19 31% 41 29.71 1007.6
04 14:55 NW 30 G 37 10.00 Mostly Cloudy and Windy BKN050 BKN210 45 22.1 40% 36 29.72 1007.9
04 13:55 NW 25 G 37 10.00 Mostly Cloudy and Breezy SCT050 BKN190 45.1 21 38% 37 29.72 1007.7
04 12:55 N 26 G 36 10.00 Mostly Cloudy and Windy FEW035 SCT047 BKN055 BKN190 45 23.2 45.7 37 42% 36 29.71 1007.2
04 11:55 N 20 10.00 Mostly Cloudy SCT028 SCT034 SCT047 BKN055 41.4 29.3 62% 33 29.71 1007.3
04 10:55 NW 23 10.00 Overcast and Breezy FEW035 FEW042 OVC055 42.4 27 54% 34 29.7 1006.9
04 09:55 N 25 G 30 9.00 Light Rain and Breezy BKN039 OVC050 40.8 25.5 55% 31 29.7 1007.0
04 08:59 NW 22 G 28 10.00 Mostly Cloudy and Breezy BKN050 41 25.7 55% 32 29.69 1006.3
04 07:55 N 15 10.00 Overcast OVC047 38.8 23.5 54% 31 29.68 1005.9
04 06:55 N 21 10.00 Mostly Cloudy and Breezy BKN038 37.6 26.4 52.5 35.4 64% 28 29.66 1005.0
04 05:55 NW 24 G 29 10.00 Mostly Cloudy and Breezy BKN036 37.9 29.3 71% 28 29.64 1004.3
04 04:55 NW 16 10.00 Partly Cloudy SCT150 37.2 27 66% 29 29.62 1003.6
04 03:55 NW 14 10.00 Partly Cloudy SCT150 38.1 28.2 68% 30 29.61 1003.3
04 02:55 N 16 10.00 Partly Cloudy SCT150 42.1 28.4 58% 35 29.57 1001.8
04 01:55 N 22 10.00 Mostly Cloudy and Breezy BKN100 48.7 26.6 42% 42 29.52 999.9
04 00:55 N 22 G 35 10.00 Mostly Cloudy and Breezy BKN090 52.7 30.2 76.1 51.1 42% 29.51 999.4
03 23:55 NW 14 10.00 Mostly Cloudy BKN090 53.4 33.6 47% 29.48 998.5
03 22:55 N 10 10.00 Mostly Cloudy BKN100 52.5 39 60% 29.49 998.9
03 21:55 N 24 G 35 10.00 Mostly Cloudy and Breezy BKN150 53.2 39.7 60% 29.48 998.7
03 20:55 NW 10 10.00 Mostly Cloudy BKN150 63.3 40.5 43% 29.38 995.2
03 19:55 NW 17 6.00 Light Showers Rain SCT100 68.9 40.1 35% 29.39 995.6
Date Time (cdt) Wind (mph) Vis. (mi.) Weather Sky Cond. Air Dwpt Max. Min. Relative Humidity Wind Chill (°F) Heat Index (°F) altimeter (in) sea level (mb) 1 hr 3 hr 6 hr
6 hour
Temperature (ºF) Pressure Precipitation (in)